Location: ???? ??
(36.0534°N, 43.5630°E)
Time: 08:01:58
(UTC+00:00)

Cosmos 2297 Rocket - Pass Details

Date: 18 September 2019
Orbit: 841 x 842 km, 71.0° (Epoch: 13 October)

Event Time Altitude Azimuth Distance (km) Brightness Sun altitude
Rises 15:45:34 0° 158° (SSE) 3,382 5.0 -8.1°
Reaches altitude 10° 15:48:46 10° 140° (SE) 2,452 4.2 -8.8°
Maximum altitude 15:52:24 18° 99° (E) 1,964 3.5 -9.5°
Drops below altitude 10° 15:56:03 10° 59° (ENE) 2,462 4.2 -10.2°
Sets 15:59:15 0° 41° (NE) 3,402 5.0 -10.9°
